Location: Leipzig
(51.3397°N, 12.3731°E)
Time: 20:36:17
(UTC+01:00)

ISS - Pass Details

Date: 20 October 2025
Orbit: 414 x 421 km, 51.6° (Epoch: 07 November)

Event Time Altitude Azimuth Distance (km) Brightness Sun altitude
Exits shadow 05:34:24 22° 167° (SSE) 967 -1.9 -20.7°
Maximum altitude 05:35:08 24° 146° (SE) 916 -1.8 -20.6°
Drops below altitude 10° 05:37:56 10° 90° (E) 1,506 0.2 -20.2°
Sets 05:40:17 0° 77° (ENE) 2,375 1.7 -19.8°
